Tracking 19490 objects as of 23-Jan-2019
HD Live streaming from Space Station
objects crossing your sky now

COSMOS 1690

Track COSMOS 1690 now!
10-day predictions
COSMOS 1690 is classified as:


NORAD ID: 16138
Int'l Code: 1985-094A
Perigee: 1,389.0 km
Apogee: 1,421.6 km
Inclination: 82.6 °
Period: 113.7 minutes
Semi major axis: 7776 km
RCS: 1.19 m2 (large)
Launch date: October 9, 1985
Source: Commonwealth of Independent States (former USSR) (CIS)
Launch site: PLESETSK MISSILE AND SPACE COMPLEX (PKMTR)
aabbcc
Your satellite tracking list
Your tracking list is empty




NASA's NSSDC Master Catalog

Two Line Element Set (TLE):
1 16138U 85094A   19022.88056271 +.00000011 +00000-0 +40999-5 0  9994
2 16138 082.6089 150.5387 0020929 346.6914 134.0550 12.66023489538160
Source of the keplerian elements: AFSPC